This demonstration page uses our WeatherBlox Daily Observations layout. Learn more.

Left ArrowRight Arrow

41.86663, -103.66717

Hourly Observations for January 30, 2017

Temp ( °F °C ) Dew Point ( °F °C ) Humidity (%) Winds ( mph kmh ) Pressure ( in mb ) Visibility ( mi km ) Precip ( " mm )
12:53 am 00:53 Clear 38 3.3 20 -6.7 48 48 WNW 16 26 30.10 1019 10 16 0.00 0.00
1:53 am 01:53 Clear 39 3.9 20 -6.7 46 46 WNW 15 24 30.07 1018 10 16 0.00 0.00
2:53 am 02:53 Clear 39 3.9 20 -6.7 46 46 W 14 22 30.07 1018 10 16 0.00 0.00
3:53 am 03:53 Clear 40 4.4 20 -6.7 45 45 W 17 28 30.02 1017 10 16 0.00 0.00
4:53 am 04:53 Clear 41 5 19 -7.2 41 41 WNW 18 30 30.06 1018 10 16 0.00 0.00
5:53 am 05:53 Clear 39 3.9 19 -7.2 45 45 WNW 13 20 30.06 1018 10 16 0.00 0.00
6:53 am 06:53 Clear 37 2.8 19 -7.2 48 48 WNW 10 17 30.09 1019 10 16 0.00 0.00
7:53 am 07:53 Sunny 35 1.7 20 -6.7 54 54 NW 9 15 30.10 1019 10 16 0.00 0.00
8:53 am 08:53 Sunny 42 5.6 20 -6.7 41 41 WNW 13 20 30.09 1019 10 16 0.00 0.00
9:53 am 09:53 Sunny 46 7.8 20 -6.7 35 35 W 17 28 30.08 1019 10 16 0.00 0.00
10:53 am 10:53 Sunny 49 9.4 21 -6.1 33 33 WNW 13 20 30.06 1018 10 16 0.00 0.00
11:53 am 11:53 Sunny 51 10.6 22 -5.6 32 32 WNW 14 22 30.02 1017 10 16 0.00 0.00
12:53 pm 12:53 Sunny 52 11.1 23 -5 32 32 W 15 24 29.99 1016 10 16 0.00 0.00
1:53 pm 13:53 Sunny 54 12.2 24 -4.4 31 31 WNW 13 20 29.96 1015 10 16 0.00 0.00
2:53 pm 14:53 Sunny 53 11.7 22 -5.6 30 30 WNW 16 26 29.95 1014 10 16 0.00 0.00
3:53 pm 15:53 Sunny 50 10 23 -5 35 35 W 16 26 29.95 1014 10 16 0.00 0.00
4:53 pm 16:53 Sunny 46 7.8 22 -5.6 38 38 WNW 20 31 29.96 1014 10 16 0.00 0.00
5:53 pm 17:53 Clear 43 6.1 23 -5 45 45 WNW 15 24 29.98 1015 10 16 0.00 0.00
6:53 pm 18:53 Clear 42 5.6 22 -5.6 45 45 WNW 13 20 29.99 1016 10 16 0.00 0.00
7:53 pm 19:53 Clear 37 2.8 24 -4.4 59 59 NW 12 19 30.01 1016 10 16 0.00 0.00
8:53 pm 20:53 Clear 38 3.3 23 -5 55 55 NW 10 17 29.99 1016 10 16 0.00 0.00
9:53 pm 21:53 Clear 32 0 23 -5 69 69 WSW 5 7 30.00 1016 10 16 0.00 0.00
10:53 pm 22:53 Clear 30 -1.1 23 -5 75 75 Calm 29.99 1016 10 16 0.00 0.00
11:53 pm 23:53 Clear 30 -1.1 23 -5 75 75 Calm 29.97 1015 10 16 0.00 0.00

Powered by AerisWeather